Weather History for KMGW - April, 2012

Change the Weather History Date:

Friday, April 27, 2012

  Actual Average Record
Temperature  
Mean Temperature 47 °F 56 °F  
Max Temperature 55 °F 68 °F 89 °F (2009)
Min Temperature 38 °F 45 °F 28 °F (1971)
Degree Days  
Heating Degree Days 18 9  
Month to date heating degree days 370 354  
Since 1 July heating degree days 4040 4955  
Cooling Degree Days 0 1  
Month to date cooling degree days 12 9  
Year to date cooling degree days 34 11  
Moisture  
Dew Point 30 °F    
Average Humidity 54    
Maximum Humidity 76    
Minimum Humidity 32    
Precipitation  
Precipitation 0.00 in 0.12 in 1.00 in (1973)
Month to date precipitation 1.28 3.17  
Year to date precipitation 8.91 12.23  
Sea Level Pressure  
Sea Level Pressure 30.12 in    
Wind  
Wind Speed 6 mph (NNW)    
Max Wind Speed 14 mph    
Max Gust Speed 18 mph    
Visibility 10 miles    
Events      
T = Trace of Precipitation, MM = Missing Value Source: NWS Daily Summary

Daily Weather History Graph

Daily Weather History Graph

Search for Another Location

Airport or City:

Trip Planner

Search our weather history database for the weather conditions in past years. The results will help you decide how hot, cold, wet, or windy it might be!

Date:

Astronomy

Apr. 27, 2012 Rise Set
Actual Time 6:24 AM EDT 8:10 PM EDT
Civil Twilight 5:56 AM EDT 8:39 PM EDT
Nautical Twilight 5:21 AM EDT 9:14 PM EDT
Astronomical Twilight 4:43 AM EDT 9:51 PM EDT
Moon 11:01 AM EDT (4/27) 12:55 AM EDT (4/27)
Length of Visible Light 14h 43m
Length of Day
13h 45m
Waxing Crescent, 33% of the Moon is Illuminated
Apr 27
Waxing Crescent
Apr 29
First Quarter
May 5
Full
May 12
Last Quarter
May 20
New

Hourly Weather History & Observations

Time (EDT) Temp. Windchill Dew Point Humidity Pressure Visibility Wind Dir Wind Speed Gust Speed Precip Events Conditions
12:53 AM 46.0 °F 41.0 °F 36.0 °F 68% 29.95 in 10.0 mi North 10.4 mph - N/A   Overcast
1:53 AM 44.1 °F 40.8 °F 36.0 °F 73% 29.97 in 10.0 mi NNW 5.8 mph - N/A   Clear
2:53 AM 43.0 °F - 35.1 °F 74% 29.98 in 10.0 mi Calm Calm - N/A   Partly Cloudy
3:53 AM 43.0 °F - 35.1 °F 74% 29.99 in 10.0 mi Calm Calm - N/A   Overcast
4:53 AM 43.0 °F 41.3 °F 35.1 °F 74% 30.00 in 10.0 mi NW 3.5 mph - N/A   Overcast
5:53 AM 43.0 °F 41.3 °F 35.1 °F 74% 30.04 in 10.0 mi Variable 3.5 mph - N/A   Overcast
6:45 AM 42.8 °F 38.0 °F 32.0 °F 66% 30.06 in 10.0 mi North 8.1 mph 17.3 mph N/A   Overcast
6:53 AM 42.1 °F 37.1 °F 32.0 °F 67% 30.07 in 10.0 mi NNW 8.1 mph - N/A   Overcast
7:53 AM 42.1 °F 37.1 °F 30.0 °F 62% 30.10 in 10.0 mi North 8.1 mph - N/A   Clear
8:53 AM 45.0 °F 40.1 °F 30.0 °F 56% 30.12 in 10.0 mi NNW 9.2 mph - N/A   Partly Cloudy
9:53 AM 45.0 °F 40.6 °F 28.0 °F 52% 30.14 in 10.0 mi North 8.1 mph 16.1 mph N/A   Overcast
10:53 AM 45.0 °F 41.8 °F 27.0 °F 49% 30.16 in 10.0 mi Variable 5.8 mph - N/A   Mostly Cloudy
11:53 AM 46.9 °F - 27.0 °F 46% 30.18 in 10.0 mi NNW 8.1 mph - N/A   Mostly Cloudy
12:53 PM 50.0 °F - 28.0 °F 43% 30.18 in 10.0 mi NW 8.1 mph - N/A   Mostly Cloudy
1:53 PM 51.1 °F - 28.0 °F 41% 30.18 in 10.0 mi NNW 11.5 mph 16.1 mph N/A   Partly Cloudy
2:53 PM 53.1 °F - 28.0 °F 38% 30.17 in 10.0 mi NW 6.9 mph - N/A   Partly Cloudy
3:53 PM 54.0 °F - 28.9 °F 38% 30.16 in 10.0 mi Variable 5.8 mph - N/A   Clear
4:53 PM 54.0 °F - 25.0 °F 33% 30.16 in 10.0 mi West 10.4 mph 17.3 mph N/A   Clear
5:53 PM 54.0 °F - 25.0 °F 33% 30.16 in 10.0 mi NW 6.9 mph - N/A   Clear
6:53 PM 53.1 °F - 24.1 °F 32% 30.17 in 10.0 mi NNW 5.8 mph - N/A   Clear
7:53 PM 50.0 °F - 26.1 °F 39% 30.19 in 10.0 mi NNW 4.6 mph - N/A   Clear
8:53 PM 45.0 °F 41.8 °F 28.0 °F 52% 30.20 in 10.0 mi North 5.8 mph - N/A   Clear
9:53 PM 45.0 °F - 27.0 °F 49% 30.23 in 10.0 mi Calm Calm - N/A   Clear
10:53 PM 41.0 °F 38.0 °F 27.0 °F 57% 30.25 in 10.0 mi North 4.6 mph - N/A   Clear
11:53 PM 39.2 °F 35.9 °F 26.6 °F 61% 30.23 in 10.0 mi North 4.6 mph - N/A   Clear